| time (UTC) | temp F | wind direction | speed knots | gust knots | rain 1hr in | rain 24hr in | rain mn in | humidity % | barometer mb |
| 20260506004004 | 44 | 358 | 1.7 | 6.1 | 0.00 | 0.00 | 0.00 | 43 | 1009.4 |
| 20260506003004 | 44 | 300 | 4.3 | 8.7 | 0.00 | 0.00 | 0.00 | 42 | 1009.5 |
| 20260506002004 | 44 | 321 | 4.3 | 7.0 | 0.00 | 0.00 | 0.00 | 42 | 1009.3 |
| 20260506001004 | 45 | 310 | 2.6 | 7.8 | 0.00 | 0.00 | 0.00 | 42 | 1009.1 |
| 20260506000003 | 45 | 337 | 2.6 | 10.4 | 0.00 | 0.00 | 0.00 | 42 | 1009.3 |
| 20260505235004 | 45 | 310 | 5.2 | 10.4 | 0.00 | 0.00 | 0.00 | 41 | 1009.0 |
| 20260505234004 | 45 | 302 | 4.3 | 13.0 | 0.00 | 0.00 | 0.00 | 41 | 1008.8 |
| 20260505233003 | 46 | 327 | 3.5 | 8.7 | 0.00 | 0.00 | 0.00 | 41 | 1008.6 |
| 20260505231004 | 46 | 1 | 2.6 | 11.3 | 0.00 | 0.00 | 0.00 | 41 | 1008.7 |
| 20260505230004 | 47 | 313 | 3.5 | 8.7 | 0.00 | 0.00 | 0.00 | 41 | 1008.5 |
| 20260505225004 | 48 | 40 | 4.3 | 12.2 | 0.00 | 0.00 | 0.00 | 40 | 1008.3 |
| 20260505224004 | 47 | 322 | 4.3 | 12.2 | 0.00 | 0.00 | 0.00 | 39 | 1008.3 |
| 20260505223004 | 48 | 312 | 5.2 | 13.0 | 0.00 | 0.00 | 0.00 | 39 | 1008.2 |
| 20260505222003 | 48 | 311 | 3.5 | 7.0 | 0.00 | 0.00 | 0.00 | 40 | 1008.2 |
| 20260505221004 | 47 | 333 | 5.2 | 11.3 | 0.00 | 0.00 | 0.00 | 40 | 1008.0 |
| 20260505215004 | 48 | 330 | 2.6 | 13.0 | 0.00 | 0.00 | 0.00 | 39 | 1007.8 |
| 20260505214003 | 48 | 299 | 4.3 | 14.8 | 0.00 | 0.00 | 0.00 | 38 | 1007.8 |
| 20260505212004 | 48 | 300 | 6.1 | 13.9 | 0.00 | 0.00 | 0.00 | 37 | 1007.9 |
| 20260505211003 | 48 | 277 | 5.2 | 15.6 | 0.00 | 0.00 | 0.00 | 37 | 1007.6 |
| 20260505210004 | 48 | 316 | 5.2 | 12.2 | 0.00 | 0.00 | 0.00 | 38 | 1007.6 |
| 20260505205004 | 49 | 284 | 4.3 | 17.4 | 0.00 | 0.00 | 0.00 | 37 | 1007.5 |
| 20260505204004 | 49 | 274 | 7.0 | 15.6 | 0.00 | 0.00 | 0.00 | 36 | 1007.5 |
| 20260505203004 | 48 | 342 | 4.3 | 10.4 | 0.00 | 0.00 | 0.00 | 37 | 1007.5 |
| 20260505202004 | 48 | 287 | 3.5 | 13.9 | 0.00 | 0.00 | 0.00 | 37 | 1007.4 |
| 20260505201004 | 48 | 278 | 4.3 | 13.9 | 0.00 | 0.00 | 0.00 | 37 | 1007.4 |
| 20260505200003 | 49 | 257 | 6.1 | 17.4 | 0.00 | 0.00 | 0.00 | 37 | 1007.3 |
| 20260505195004 | 49 | 299 | 3.5 | 12.2 | 0.00 | 0.00 | 0.00 | 37 | 1007.2 |
| 20260505193003 | 49 | 280 | 7.0 | 13.9 | 0.00 | 0.00 | 0.00 | 37 | 1006.9 |
| 20260505192004 | 50 | 284 | 1.7 | 14.8 | 0.00 | 0.00 | 0.00 | 38 | 1006.8 |
| 20260505191004 | 50 | 340 | 4.3 | 12.2 | 0.00 | 0.00 | 0.00 | 36 | 1006.8 |
| 20260505190004 | 50 | 319 | 5.2 | 10.4 | 0.00 | 0.00 | 0.00 | 38 | 1006.6 |
| 20260505185004 | 50 | 286 | 5.2 | 11.3 | 0.00 | 0.00 | 0.00 | 37 | 1006.8 |
| 20260505184003 | 50 | 331 | 4.3 | 12.2 | 0.00 | 0.00 | 0.00 | 36 | 1006.6 |
| 20260505183004 | 53 | 351 | 5.2 | 10.4 | 0.00 | 0.00 | 0.00 | 33 | 1006.3 |
| 20260505182004 | 50 | 299 | 5.2 | 17.4 | 0.00 | 0.00 | 0.00 | 37 | 1006.3 |
| 20260505181004 | 49 | 266 | 2.6 | 12.2 | 0.00 | 0.00 | 0.00 | 39 | 1006.3 |
| 20260505180004 | 50 | 334 | 3.5 | 11.3 | 0.00 | 0.00 | 0.00 | 40 | 1006.0 |
| 20260505175004 | 48 | 265 | 5.2 | 11.3 | 0.00 | 0.00 | 0.00 | 39 | 1006.1 |
| 20260505174004 | 48 | 274 | 4.3 | 12.2 | 0.00 | 0.00 | 0.00 | 40 | 1006.1 |
| 20260505172004 | 48 | 278 | 5.2 | 14.8 | 0.00 | 0.00 | 0.00 | 40 | 1005.8 |
| 20260505171003 | 48 | 279 | 4.3 | 15.6 | 0.00 | 0.00 | 0.00 | 41 | 1005.7 |
| 20260505165004 | 47 | 286 | 6.1 | 12.2 | 0.00 | 0.00 | 0.00 | 40 | 1005.7 |
| 20260505164004 | 46 | 255 | 8.7 | 19.1 | 0.00 | 0.00 | 0.00 | 42 | 1005.9 |
| 20260505163005 | 49 | 230 | 4.3 | 10.4 | 0.00 | 0.00 | 0.00 | 39 | 1005.5 |
| 20260505161004 | 47 | 266 | 5.2 | 15.6 | 0.00 | 0.00 | 0.00 | 43 | 1005.7 |
| 20260505153004 | 47 | 261 | 2.6 | 7.0 | 0.00 | 0.00 | 0.00 | 43 | 1005.9 |
| 20260505152003 | 47 | 211 | 4.3 | 13.9 | 0.00 | 0.00 | 0.00 | 44 | 1005.8 |
| 20260505125003 | 41 | 317 | 2.6 | 7.0 | 0.00 | 0.00 | 0.00 | 59 | 1005.1 |
| 20260505124004 | 40 | 301 | 2.6 | 6.1 | 0.00 | 0.00 | 0.00 | 61 | 1005.0 |
| 20260505123004 | 39 | 253 | 1.7 | 4.3 | 0.00 | 0.00 | 0.00 | 61 | 1005.1 |
| 20260505121004 | 38 | 260 | 2.6 | 6.1 | 0.00 | 0.00 | 0.00 | 62 | 1005.1 |
| 20260505120005 | 38 | 267 | 2.6 | 6.1 | 0.00 | 0.00 | 0.00 | 63 | 1005.1 |
| 20260505115004 | 37 | 258 | 0.9 | 4.3 | 0.00 | 0.00 | 0.00 | 65 | 1005.0 |
| 20260505114004 | 36 | 265 | 1.7 | 4.3 | 0.00 | 0.00 | 0.00 | 67 | 1004.9 |
| 20260505112004 | 35 | 269 | 0.9 | 4.3 | 0.00 | 0.00 | 0.00 | 68 | 1004.7 |
| 20260505111004 | 34 | 284 | 0.9 | 1.7 | 0.00 | 0.00 | 0.00 | 70 | 1004.5 |
| 20260505102004 | 33 | 330 | 0.9 | 1.7 | 0.00 | 0.00 | 0.00 | 68 | 1004.0 |
| 20260505101004 | 35 | 301 | 0.0 | 2.6 | 0.00 | 0.00 | 0.00 | 65 | 1004.1 |
| 20260505100003 | 34 | 289 | 1.7 | 1.7 | 0.00 | 0.00 | 0.00 | 66 | 1003.9 |
| 20260505095003 | 34 | 321 | 0.9 | 1.7 | 0.00 | 0.00 | 0.00 | 66 | 1003.7 |
| 20260505093004 | 36 | 308 | 0.9 | 2.6 | 0.00 | 0.00 | 0.00 | 62 | 1003.3 |
| 20260505092004 | 36 | 306 | 0.9 | 1.7 | 0.00 | 0.00 | 0.00 | 62 | 1003.3 |
| 20260505091004 | 37 | 292 | 0.9 | 4.3 | 0.00 | 0.00 | 0.00 | 61 | 1003.2 |
| 20260505090003 | 37 | 271 | 0.9 | 1.7 | 0.00 | 0.00 | 0.00 | 60 | 1003.2 |
| 20260505085004 | 37 | 278 | 0.9 | 2.6 | 0.00 | 0.00 | 0.00 | 59 | 1002.9 |
| 20260505084004 | 38 | 317 | 0.9 | 1.7 | 0.00 | 0.00 | 0.00 | 59 | 1002.9 |
| 20260505083003 | 39 | 308 | 0.9 | 1.7 | 0.00 | 0.00 | 0.00 | 56 | 1002.8 |
| 20260505082003 | 39 | 349 | 0.9 | 0.9 | 0.00 | 0.00 | 0.00 | 55 | 1002.9 |
| 20260505080004 | 41 | 292 | 0.9 | 2.6 | 0.00 | 0.00 | 0.00 | 51 | 1002.7 |
| 20260505075003 | 41 | 314 | 0.0 | 2.6 | 0.00 | 0.00 | 0.00 | 51 | 1002.8 |
| 20260505074004 | 41 | 305 | 0.9 | 4.3 | 0.00 | 0.00 | 0.00 | 50 | 1002.7 |
| 20260505073004 | 41 | 293 | 1.7 | 2.6 | 0.00 | 0.00 | 0.00 | 50 | 1002.7 |
| 20260505072004 | 41 | 24 | 0.9 | 2.6 | 0.00 | 0.00 | 0.00 | 51 | 1002.8 |
| 20260505071004 | 42 | 299 | 0.9 | 2.6 | 0.00 | 0.00 | 0.00 | 49 | 1002.9 |
| 20260505070004 | 42 | 308 | 2.6 | 5.2 | 0.00 | 0.00 | 0.00 | 49 | 1002.9 |
| 20260505065003 | 42 | 304 | 2.6 | 5.2 | 0.00 | 0.00 | 0.00 | 49 | 1002.8 |
| 20260505064004 | 42 | 342 | 1.7 | 7.8 | 0.00 | 0.00 | 0.00 | 49 | 1002.7 |
| 20260505063004 | 43 | 334 | 2.6 | 7.8 | 0.00 | 0.00 | 0.00 | 48 | 1002.7 |
| 20260505061004 | 43 | 294 | 1.7 | 4.3 | 0.00 | 0.00 | 0.00 | 49 | 1002.8 |
| 20260505060004 | 44 | 278 | 0.9 | 6.1 | 0.00 | 0.00 | 0.00 | 48 | 1002.6 |
| 20260505055004 | 44 | 279 | 3.5 | 12.2 | 0.00 | 0.00 | 0.00 | 47 | 1002.5 |
| 20260505054004 | 44 | 265 | 2.6 | 13.0 | 0.00 | 0.00 | 0.00 | 47 | 1002.5 |
| 20260505053004 | 45 | 296 | 5.2 | 13.0 | 0.00 | 0.00 | 0.00 | 46 | 1002.4 |
| 20260505052003 | 45 | 319 | 2.6 | 8.7 | 0.00 | 0.00 | 0.00 | 48 | 1002.4 |
| 20260505051004 | 46 | 275 | 4.3 | 7.0 | 0.00 | 0.00 | 0.00 | 50 | 1002.1 |
| 20260505041003 | 47 | 17 | 2.6 | 11.3 | 0.00 | 0.00 | 0.00 | 51 | 1001.0 |
| 20260505040005 | 47 | 343 | 2.6 | 10.4 | 0.00 | 0.00 | 0.00 | 50 | 1000.5 |
| 20260505035004 | 47 | 4 | 0.9 | 4.3 | 0.00 | 0.00 | 0.00 | 49 | 1000.2 |
| 20260505034004 | 48 | 310 | 2.6 | 6.1 | 0.00 | 0.00 | 0.00 | 48 | 1000.1 |
| 20260505031004 | 49 | 338 | 1.7 | 10.4 | 0.00 | 0.00 | 0.00 | 49 | 999.9 |
| 20260505030004 | 49 | 342 | 1.7 | 6.1 | 0.00 | 0.00 | 0.00 | 48 | 999.8 |
| 20260505024004 | 50 | 0 | 0.9 | 5.2 | 0.00 | 0.00 | 0.00 | 48 | 999.8 |
| 20260505023004 | 51 | 86 | 1.7 | 8.7 | 0.00 | 0.00 | 0.00 | 47 | 999.3 |
| 20260505022003 | 51 | 332 | 2.6 | 10.4 | 0.00 | 0.00 | 0.00 | 48 | 999.3 |
| 20260505021004 | 52 | 351 | 1.7 | 8.7 | 0.00 | 0.00 | 0.00 | 47 | 999.1 |
| 20260505020004 | 53 | 329 | 2.6 | 10.4 | 0.00 | 0.00 | 0.00 | 46 | 998.8 |
| 20260505015004 | 53 | 16 | 1.7 | 7.8 | 0.00 | 0.00 | 0.00 | 46 | 998.3 |
| 20260505013004 | 55 | 343 | 4.3 | 8.7 | 0.00 | 0.00 | 0.00 | 44 | 997.9 |
| 20260505012004 | 56 | 6 | 1.7 | 6.1 | 0.00 | 0.00 | 0.00 | 44 | 997.7 |
| 20260505011004 | 57 | 341 | 4.3 | 6.1 | 0.00 | 0.00 | 0.00 | 43 | 997.4 |